TimeCDT,TemperatureF,Dew PointF,Humidity,Sea Level PressureIn,VisibilityMPH,Wind Direction,Wind SpeedMPH,Gust SpeedMPH,PrecipitationIn,Events,Conditions,WindDirDegrees,DateUTC
12:13 AM,55.4,37.4,51,30.09,10.0,SSE,3.5,-,N/A,,Clear,160,2013-07-03 05:13:00
12:33 AM,53.6,39.2,58,30.09,10.0,SSE,3.5,-,N/A,,Clear,150,2013-07-03 05:33:00
12:52 AM,51.8,39.2,62,30.09,10.0,Calm,Calm,-,N/A,,Clear,0,2013-07-03 05:52:00
1:13 AM,50.0,41.0,71,30.09,10.0,SE,4.6,-,N/A,,Clear,140,2013-07-03 06:13:00
1:32 AM,51.8,39.2,62,30.10,10.0,Calm,Calm,-,N/A,,Clear,0,2013-07-03 06:32:00
1:53 AM,51.8,39.2,62,30.09,10.0,SE,4.6,-,N/A,,Clear,140,2013-07-03 06:53:00
2:13 AM,50.0,37.4,62,30.09,10.0,Calm,Calm,-,N/A,,Clear,0,2013-07-03 07:13:00
2:33 AM,48.2,42.8,82,30.09,10.0,Calm,Calm,-,N/A,,Clear,0,2013-07-03 07:33:00
2:53 AM,48.2,39.2,71,30.08,10.0,Calm,Calm,-,N/A,,Clear,0,2013-07-03 07:53:00
3:13 AM,48.2,39.2,71,30.08,10.0,Calm,Calm,-,N/A,,Clear,0,2013-07-03 08:13:00
3:33 AM,46.4,39.2,76,30.07,10.0,Calm,Calm,-,N/A,,Clear,0,2013-07-03 08:33:00
3:52 AM,46.4,41.0,81,30.07,10.0,Calm,Calm,-,N/A,,Clear,0,2013-07-03 08:52:00
4:13 AM,46.4,39.2,76,30.07,10.0,Calm,Calm,-,N/A,,Clear,0,2013-07-03 09:13:00
4:33 AM,46.4,39.2,76,30.07,10.0,Calm,Calm,-,N/A,,Clear,0,2013-07-03 09:33:00
4:52 AM,44.6,39.2,81,30.07,10.0,Calm,Calm,-,N/A,,Clear,0,2013-07-03 09:52:00
5:13 AM,46.4,39.2,76,30.07,10.0,Calm,Calm,-,N/A,,Clear,0,2013-07-03 10:13:00
5:33 AM,46.4,39.2,76,30.07,10.0,Calm,Calm,-,N/A,,Clear,0,2013-07-03 10:33:00
5:52 AM,46.4,41.0,81,30.07,10.0,Calm,Calm,-,N/A,,Clear,0,2013-07-03 10:52:00
6:13 AM,48.2,42.8,82,30.07,10.0,Calm,Calm,-,N/A,,Clear,0,2013-07-03 11:13:00
6:33 AM,50.0,42.8,76,30.07,10.0,Calm,Calm,-,N/A,,Clear,0,2013-07-03 11:33:00
6:52 AM,53.6,44.6,72,30.07,10.0,Calm,Calm,-,N/A,,Clear,0,2013-07-03 11:52:00
7:13 AM,55.4,44.6,67,30.07,10.0,Calm,Calm,-,N/A,,Clear,0,2013-07-03 12:13:00
7:33 AM,57.2,46.4,67,30.07,10.0,Calm,Calm,-,N/A,,Clear,0,2013-07-03 12:33:00
7:52 AM,60.8,46.4,59,30.07,10.0,Calm,Calm,-,N/A,,Clear,0,2013-07-03 12:52:00
8:13 AM,62.6,46.4,55,30.07,10.0,South,4.6,-,N/A,,Clear,190,2013-07-03 13:13:00
8:32 AM,64.4,48.2,56,30.07,10.0,South,3.5,-,N/A,,Clear,190,2013-07-03 13:32:00
8:53 AM,68.0,48.2,49,30.07,10.0,SW,3.5,-,N/A,,Clear,220,2013-07-03 13:53:00
9:13 AM,69.8,48.2,46,30.07,10.0,SW,3.5,-,N/A,,Clear,220,2013-07-03 14:13:00
9:33 AM,69.8,51.8,53,30.07,10.0,WSW,3.5,-,N/A,,Clear,250,2013-07-03 14:33:00
9:53 AM,71.6,51.8,50,30.07,10.0,SW,4.6,-,N/A,,Clear,230,2013-07-03 14:53:00
10:13 AM,71.6,51.8,50,30.06,10.0,SSW,3.5,-,N/A,,Clear,200,2013-07-03 15:13:00
10:33 AM,73.4,53.6,50,30.06,10.0,Calm,Calm,-,N/A,,Clear,0,2013-07-03 15:33:00
10:53 AM,75.2,53.6,47,30.06,10.0,South,3.5,-,N/A,,Clear,190,2013-07-03 15:53:00
11:13 AM,75.2,53.6,47,30.05,10.0,Calm,Calm,-,N/A,,Clear,0,2013-07-03 16:13:00
11:33 AM,77.0,51.8,41,30.04,10.0,Calm,Calm,-,N/A,,Clear,0,2013-07-03 16:33:00
11:53 AM,78.8,51.8,39,30.04,10.0,South,3.5,-,N/A,,Clear,170,2013-07-03 16:53:00
12:13 PM,78.8,48.2,34,30.04,10.0,SSE,4.6,-,N/A,,Clear,160,2013-07-03 17:13:00
12:33 PM,80.6,48.2,32,30.03,10.0,SSE,4.6,-,N/A,,Scattered Clouds,160,2013-07-03 17:33:00
12:53 PM,78.8,51.8,39,30.03,10.0,Calm,Calm,-,N/A,,Mostly Cloudy,0,2013-07-03 17:53:00
1:13 PM,78.8,48.2,34,30.02,10.0,Calm,Calm,-,N/A,,Mostly Cloudy,0,2013-07-03 18:13:00
1:33 PM,77.0,53.6,44,30.02,10.0,Calm,Calm,-,N/A,,Mostly Cloudy,0,2013-07-03 18:33:00
1:53 PM,78.8,48.2,34,30.01,10.0,Calm,Calm,-,N/A,,Mostly Cloudy,0,2013-07-03 18:53:00
2:13 PM,78.8,48.2,34,30.00,10.0,Calm,Calm,-,N/A,,Mostly Cloudy,0,2013-07-03 19:13:00
2:33 PM,78.8,48.2,34,30.00,10.0,Calm,Calm,-,N/A,,Scattered Clouds,0,2013-07-03 19:33:00
2:53 PM,80.6,50.0,34,29.99,10.0,Calm,Calm,-,N/A,,Scattered Clouds,0,2013-07-03 19:53:00
3:12 PM,82.4,48.2,30,29.98,10.0,South,4.6,-,N/A,,Scattered Clouds,180,2013-07-03 20:12:00
3:32 PM,82.4,46.4,28,29.98,10.0,South,8.1,-,N/A,,Clear,170,2013-07-03 20:32:00
3:51 PM,84.2,48.2,29,29.98,10.0,SW,8.1,-,N/A,,Clear,220,2013-07-03 20:51:00
4:13 PM,82.4,46.4,28,29.97,10.0,SSW,5.8,-,N/A,,Scattered Clouds,200,2013-07-03 21:13:00
4:32 PM,82.4,46.4,28,29.97,10.0,South,6.9,-,N/A,,Scattered Clouds,190,2013-07-03 21:32:00
4:53 PM,78.8,50.0,36,29.97,10.0,South,10.4,-,N/A,,Scattered Clouds,170,2013-07-03 21:53:00
5:13 PM,80.6,50.0,34,29.97,10.0,South,11.5,-,N/A,,Scattered Clouds,190,2013-07-03 22:13:00
5:32 PM,80.6,50.0,34,29.97,10.0,South,10.4,17.3,N/A,,Scattered Clouds,180,2013-07-03 22:32:00
5:53 PM,78.8,48.2,34,29.96,10.0,South,11.5,17.3,N/A,,Clear,170,2013-07-03 22:53:00
6:13 PM,80.6,51.8,37,29.96,10.0,South,9.2,-,N/A,,Clear,180,2013-07-03 23:13:00
6:32 PM,78.8,50.0,36,29.96,10.0,South,8.1,-,N/A,,Clear,190,2013-07-03 23:32:00
6:53 PM,78.8,48.2,34,29.95,10.0,South,11.5,-,N/A,,Clear,170,2013-07-03 23:53:00
7:13 PM,78.8,50.0,36,29.96,10.0,South,11.5,-,N/A,,Clear,180,2013-07-04 00:13:00
7:32 PM,77.0,50.0,39,29.96,10.0,South,6.9,-,N/A,,Clear,190,2013-07-04 00:32:00
7:53 PM,75.2,50.0,41,29.96,10.0,South,8.1,-,N/A,,Clear,180,2013-07-04 00:53:00
8:13 PM,75.2,50.0,41,29.96,10.0,South,6.9,-,N/A,,Clear,180,2013-07-04 01:13:00
8:32 PM,73.4,50.0,44,29.95,10.0,South,4.6,-,N/A,,Clear,170,2013-07-04 01:32:00
8:53 PM,71.6,51.8,50,29.95,10.0,SSE,3.5,-,N/A,,Clear,160,2013-07-04 01:53:00
9:13 PM,69.8,50.0,49,29.95,10.0,South,4.6,-,N/A,,Clear,170,2013-07-04 02:13:00
9:32 PM,68.0,50.0,52,29.96,10.0,South,4.6,-,N/A,,Clear,180,2013-07-04 02:32:00
9:53 PM,68.0,50.0,52,29.96,10.0,SSE,4.6,-,N/A,,Clear,160,2013-07-04 02:53:00
10:13 PM,66.2,50.0,56,29.96,10.0,South,4.6,-,N/A,,Clear,170,2013-07-04 03:13:00
10:32 PM,66.2,50.0,56,29.96,10.0,SSE,3.5,-,N/A,,Clear,160,2013-07-04 03:32:00
10:53 PM,64.4,50.0,59,29.96,10.0,Calm,Calm,-,N/A,,Clear,0,2013-07-04 03:53:00
11:13 PM,62.6,51.8,68,29.96,10.0,Calm,Calm,-,N/A,,Clear,0,2013-07-04 04:13:00
11:32 PM,60.8,50.0,68,29.95,10.0,Calm,Calm,-,N/A,,Clear,0,2013-07-04 04:32:00
11:53 PM,59.0,51.8,77,29.96,10.0,Calm,Calm,-,N/A,,Clear,0,2013-07-04 04:53:00